Temp
10 10 11 11 10 10 9 9 10 10 11 11 11 11 12 12 12 12 13 12 11 11 10 10 10 10 10 10 10 9 9 9 9 10 11 11 10 10 10 9 9 8 8 8 7
10 10 10 10 10 10 9 9 10 10 11 10 11 11 11 12 12 13 13 11 11 11 10 10 10 10 9 10 9 9 9 9 10 10 10 10 10 10 10 10 9 8 8 7 7
9 9 10 9 9 9 9 9 9 10 10 11 10 10 11 12 12 13 12 11 11 10 10 10 9 9 9 9 9 10 10 10 10 10 10 10 10 10 10 9 9 8 8 8 7
9 9 9 9 9 9 9 9 9 9 10 10 10 10 10 11 11 11 12 11 11 10 10 10 9 9 9 10 10 10 10 10 11 11 10 10 10 10 9 9 8 8 8 8 7
9 9 9 9 9 9 9 9 8 9 9 10 9 9 10 11 12 11 12 11 11 10 10 10 10 9 10 10 10 10 10 11 11 11 10 10 10 9 9 8 8 8 8 7 7
9 9 9 9 9 9 9 8 8 9 9 9 9 9 10 11 11 10 11 11 11 10 10 10 10 10 9 10 10 10 10 10 10 10 10 10 9 9 10 9 9 8 8 7 7
8 8 8 9 8 8 8 8 8 8 8 8 9 9 10 12 10 11 11 10 11 10 10 10 10 9 9 10 10 10 10 10 10 10 10 9 9 10 10 10 9 9 8 8 7
8 8 8 8 8 8 8 8 7 8 8 8 8 9 10 11 10 11 11 10 11 10 10 10 9 9 9 9 9 10 10 10 10 10 10 9 10 10 10 10 10 9 9 8 7
8 8 8 8 8 8 8 7 7 7 7 8 8 8 10 12 11 11 10 10 10 10 10 10 9 9 9 9 9 9 8 9 9 10 9 9 10 10 10 10 10 9 9 8 7
7 7 7 7 7 7 7 7 7 7 7 7 8 8 10 11 11 11 10 10 10 9 9 9 9 9 9 9 9 9 9 9 9 9 9 9 10 10 10 10 10 9 9 8 7
7 7 7 7 6 7 7 6 6 7 7 8 7 9 9 10 11 10 10 10 10 9 9 9 9 9 9 9 9 9 9 9 9 9 9 9 9 10 10 10 10 9 9 8 7
6 7 7 7 6 6 6 6 7 7 8 8 7 8 8 9 10 10 10 9 9 9 9 8 9 9 8 8 8 9 9 9 9 9 9 9 9 10 10 10 10 9 9 8 7
5 5 6 6 6 6 6 6 5 6 7 10 8 9 9 8 9 10 9 9 9 9 9 9 9 9 8 8 8 8 8 9 9 9 8 9 9 10 10 10 10 10 9 8 8
5 5 5 5 5 5 6 5 5 4 5 9 10 10 10 9 8 10 9 9 9 9 9 9 9 9 9 9 8 8 9 9 9 8 8 9 7 10 10 10 10 10 10 9 8
4 5 5 5 5 5 5 4 3 4 0 8 9 9 10 9 10 9 9 8 8 8 8 8 8 8 8 8 8 8 9 9 9 8 8 9 8 9 10 10 10 10 10 10 8
2 3 4 4 4 4 3 3 2 3 -0 7 8 9 9 9 9 9 9 8 8 8 8 8 9 8 8 8 9 9 8 8 8 8 4 9 9 9 10 10 10 10 10 10 8
1 1 2 3 3 3 2 1 1 1 5 7 8 9 9 9 8 9 9 8 8 8 8 8 8 9 9 9 9 9 9 7 5 4 3 9 8 10 10 10 10 10 10 10 9
-1 -1 0 1 1 2 1 -0 1 4 5 7 8 9 9 8 7 8 8 8 8 8 8 8 8 8 9 9 9 9 9 8 5 3 5 9 8 10 10 10 10 10 10 9 9
-3 -2 -2 0 0 -0 -1 -1 2 3 5 6 7 7 7 8 7 7 8 8 8 8 8 8 8 9 9 9 9 9 9 9 8 8 6 9 10 10 10 11 10 10 10 9 9
-9 -8 -5 -2 -3 -3 -2 1 2 3 4 5 7 8 8 8 7 7 8 9 8 9 9 9 8 9 9 9 9 9 9 9 8 6 6 7 8 10 11 10 10 10 9 10 9
-8 -8 -8 -5 -7 -6 -3 1 1 2 3 5 6 7 8 8 8 7 8 9 9 9 9 8 9 9 9 9 9 9 8 9 9 8 3 1 8 10 10 11 10 10 9 9 9
-8 -9 -8 -7 -6 -7 -2 0 1 1 2 3 5 6 7 8 8 8 8 8 9 9 8 8 9 9 9 9 9 9 9 9 9 8 8 9 9 10 10 11 11 11 9 9 9
-8 -8 -8 -7 -7 -7 -2 -3 -2 -0 2 3 4 5 6 7 7 8 8 8 9 9 8 8 8 8 8 9 9 9 9 10 9 10 9 7 9 10 10 10 11 10 10 9 9
-9 -8 -7 -7 -7 -7 -4 -4 -5 -0 -1 1 2 4 5 6 6 7 7 8 8 8 9 8 9 9 7 8 8 8 9 9 10 9 10 10 10 10 10 10 10 10 9 9 9
-9 -8 -7 -7 -7 -5 -7 -7 -4 -4 -2 -0 0 2 4 5 6 6 6 7 7 8 8 9 8 9 9 9 9 9 9 9 9 10 10 10 10 10 10 10 9 10 9 9 9
-9 -8 -8 -7 -7 -7 -7 -6 -6 -4 -3 -1 -1 1 2 3 4 5 5 7 7 7 7 8 8 9 9 9 9 9 9 9 9 9 10 10 10 10 10 10 9 10 10 9 9
-9 -8 -8 -8 -7 -7 -6 -5 -6 -5 -3 -3 -2 -1 0 1 2 3 4 5 6 6 7 8 8 8 8 9 8 8 9 9 9 9 10 10 10 10 10 9 9 10 10 10 10
Height
3149 3148 3152 3152 3152 3151 3151 3150 3151 3153 3154 3154 3155 3155 3157 3158 3158 3161 3161 3165 3164 3164 3164 3165 3166 3166 3166 3167 3168 3169 3168 3167 3169 3169 3167 3164 3162 3162 3160 3156 3154 3154 3153 3151 3148
3142 3144 3145 3145 3145 3146 3147 3146 3146 3147 3147 3147 3147 3148 3150 3152 3152 3156 3158 3159 3160 3160 3161 3162 3163 3164 3164 3164 3165 3165 3165 3165 3167 3166 3165 3165 3162 3161 3160 3156 3153 3152 3151 3149 3146
3139 3139 3139 3139 3140 3141 3141 3140 3141 3141 3140 3140 3140 3142 3142 3145 3146 3151 3151 3153 3153 3156 3158 3159 3159 3161 3160 3161 3161 3162 3162 3163 3161 3162 3163 3163 3161 3160 3157 3155 3154 3153 3149 3147 3144
3133 3133 3134 3134 3135 3135 3135 3135 3135 3134 3133 3134 3135 3136 3137 3139 3144 3142 3142 3146 3148 3150 3154 3154 3156 3156 3157 3158 3158 3159 3160 3159 3158 3157 3157 3160 3159 3157 3154 3154 3153 3152 3149 3145 3143
3128 3128 3127 3128 3128 3128 3129 3130 3130 3129 3128 3128 3129 3129 3131 3133 3136 3140 3139 3140 3142 3146 3148 3152 3154 3155 3154 3156 3156 3156 3156 3156 3155 3154 3155 3157 3156 3154 3153 3152 3150 3149 3146 3144 3142
3120 3120 3120 3120 3120 3121 3122 3123 3123 3122 3122 3122 3124 3124 3124 3125 3133 3133 3134 3135 3139 3143 3148 3149 3151 3155 3154 3154 3154 3155 3153 3152 3154 3154 3154 3153 3153 3152 3152 3149 3148 3147 3145 3142 3140
3112 3112 3112 3112 3113 3114 3115 3116 3116 3115 3117 3117 3118 3117 3116 3124 3126 3126 3129 3132 3134 3140 3145 3149 3149 3151 3151 3152 3151 3152 3151 3150 3152 3153 3153 3151 3150 3149 3149 3147 3146 3145 3143 3141 3139
3104 3104 3104 3104 3105 3106 3107 3109 3109 3110 3112 3111 3112 3111 3108 3116 3117 3122 3123 3127 3130 3135 3140 3144 3148 3147 3147 3148 3149 3149 3150 3148 3151 3152 3151 3149 3146 3148 3148 3145 3145 3143 3141 3139 3137
3096 3097 3097 3098 3098 3100 3101 3102 3102 3103 3104 3104 3106 3105 3105 3109 3112 3118 3119 3123 3126 3132 3137 3139 3141 3143 3147 3146 3146 3146 3146 3147 3149 3150 3150 3148 3145 3146 3145 3143 3142 3141 3138 3137 3135
3087 3088 3089 3090 3091 3093 3097 3097 3095 3095 3096 3097 3096 3102 3103 3104 3104 3109 3114 3120 3123 3128 3133 3135 3137 3137 3140 3143 3141 3145 3145 3145 3146 3149 3147 3145 3143 3143 3142 3140 3139 3138 3135 3134 3133
3078 3079 3079 3081 3082 3084 3089 3089 3091 3088 3087 3089 3089 3091 3096 3097 3099 3105 3109 3114 3118 3124 3125 3128 3132 3127 3133 3139 3140 3142 3142 3142 3143 3145 3142 3141 3140 3139 3137 3136 3135 3134 3132 3131 3131
3069 3071 3071 3073 3074 3077 3081 3080 3080 3080 3078 3078 3081 3081 3090 3093 3095 3100 3104 3109 3111 3115 3120 3124 3119 3126 3133 3136 3137 3137 3138 3139 3139 3140 3139 3138 3137 3136 3134 3132 3131 3131 3128 3128 3128
3059 3060 3062 3066 3068 3071 3075 3075 3075 3074 3071 3067 3072 3074 3083 3086 3089 3094 3097 3101 3106 3111 3114 3115 3117 3125 3128 3130 3133 3133 3134 3135 3136 3136 3134 3133 3131 3133 3132 3130 3128 3127 3125 3124 3125
3047 3049 3052 3056 3060 3065 3068 3070 3072 3072 3069 3057 3060 3065 3069 3076 3076 3089 3091 3098 3101 3105 3110 3111 3117 3120 3123 3125 3129 3128 3133 3132 3132 3132 3131 3130 3125 3128 3127 3126 3125 3123 3122 3121 3122
3035 3038 3041 3046 3049 3057 3062 3064 3069 3073 3071 3055 3049 3054 3058 3063 3072 3079 3087 3090 3093 3098 3104 3104 3109 3114 3116 3120 3124 3126 3128 3128 3128 3127 3126 3126 3126 3122 3122 3121 3121 3120 3118 3117 3119
3022 3025 3027 3034 3040 3049 3054 3059 3064 3073 3048 3042 3042 3045 3049 3053 3063 3076 3080 3086 3092 3096 3097 3101 3106 3109 3113 3117 3120 3123 3124 3124 3123 3122 3121 3121 3121 3118 3118 3117 3116 3115 3113 3113 3115
3006 3011 3014 3020 3031 3039 3046 3053 3060 3048 3035 3033 3037 3040 3044 3047 3056 3063 3069 3074 3078 3085 3087 3095 3098 3104 3109 3113 3115 3118 3120 3121 3122 3121 3120 3116 3117 3115 3113 3113 3112 3110 3109 3109 3113
2991 2997 2998 3006 3017 3028 3037 3044 3038 3014 3022 3027 3031 3036 3037 3042 3048 3056 3062 3065 3072 3077 3082 3086 3092 3096 3102 3106 3111 3113 3116 3118 3122 3121 3114 3113 3112 3110 3110 3110 3108 3104 3104 3105 3111
2975 2981 2984 2992 3006 3014 3024 3027 3000 3004 3012 3024 3027 3029 3033 3037 3044 3051 3052 3055 3061 3066 3074 3079 3083 3091 3096 3101 3106 3108 3109 3112 3111 3111 3111 3109 3108 3107 3106 3106 3105 3103 3102 3104 3109
2962 2966 2971 2984 2990 2998 3006 2997 2994 2999 3008 3017 3020 3025 3027 3031 3038 3041 3045 3044 3053 3060 3068 3074 3081 3085 3091 3095 3098 3100 3106 3107 3107 3110 3110 3105 3104 3103 3104 3104 3102 3101 3102 3103 3107
2958 2958 2961 2973 2979 2982 2983 2975 2988 2996 3005 3011 3016 3022 3023 3026 3029 3033 3033 3039 3046 3055 3065 3070 3078 3082 3084 3084 3090 3094 3096 3100 3103 3104 3104 3109 3099 3102 3102 3101 3101 3100 3101 3103 3106
2949 2951 2955 2963 2968 2965 2966 2968 2981 2988 2999 3006 3011 3017 3019 3021 3024 3027 3027 3033 3040 3045 3052 3062 3070 3074 3077 3080 3084 3087 3089 3094 3095 3099 3098 3097 3093 3099 3101 3100 3099 3101 3100 3102 3105
2941 2945 2950 2956 2954 2954 2958 2963 2972 2982 2991 2997 3001 3007 3013 3016 3019 3020 3023 3032 3038 3040 3045 3055 3060 3066 3070 3074 3074 3077 3082 3086 3089 3091 3091 3093 3091 3097 3098 3097 3098 3098 3098 3100 3103
2938 2941 2941 2943 2947 2952 2954 2958 2966 2977 2982 2988 2993 3000 3003 3009 3013 3015 3019 3025 3032 3038 3044 3049 3052 3051 3052 3062 3070 3073 3076 3080 3083 3083 3086 3085 3089 3092 3094 3095 3095 3097 3098 3099 3102
2931 2931 2930 2935 2939 2943 2948 2954 2962 2969 2976 2982 2986 2992 2996 3000 3005 3011 3017 3022 3027 3033 3038 3042 3040 3047 3052 3058 3063 3065 3068 3072 3073 3077 3079 3082 3083 3087 3090 3091 3092 3094 3095 3097 3099
2927 2929 2933 2934 2938 2942 2944 2949 2956 2965 2971 2976 2980 2986 2991 2994 2999 3003 3010 3018 3021 3027 3030 3034 3036 3040 3043 3050 3054 3057 3056 3061 3066 3068 3071 3076 3077 3083 3085 3086 3087 3091 3091 3094 3097
2924 2928 2932 2930 2934 2938 2939 2943 2950 2961 2966 2971 2977 2982 2984 2989 2993 2997 3001 3008 3014 3019 3023 3029 3030 3034 3036 3042 3048 3039 3048 3054 3059 3062 3066 3069 3073 3077 3079 3082 3084 3086 3088 3091 3093
Wind_Speed
32 31 31 29 25 25 25 24 25 27 26 26 26 26 25 25 24 24 24 15 16 19 22 18 17 15 12 14 16 17 19 20 19 20 18 13 15 13 15 18 19 20 21 23 22
30 34 33 28 27 25 26 26 27 27 30 29 29 30 30 30 29 26 25 16 20 24 23 18 18 15 14 15 16 15 18 19 18 20 17 15 16 16 17 19 19 17 19 21 23
29 29 29 28 28 28 27 25 26 27 28 29 33 32 32 33 32 25 27 20 24 26 24 19 19 18 17 18 19 20 22 21 24 25 22 17 17 19 21 22 17 17 17 20 21
31 30 29 29 29 28 27 26 26 25 26 28 30 32 33 32 28 18 23 24 28 27 26 23 21 21 19 19 19 19 19 20 21 24 20 18 15 23 24 19 18 18 18 18 21
32 32 31 32 31 30 28 27 25 24 24 26 28 31 34 35 33 16 10 23 25 26 27 21 19 16 20 19 19 19 14 12 12 10 10 13 17 20 21 19 19 19 17 17 19
34 34 33 33 33 33 32 30 27 26 24 25 27 30 31 34 24 23 19 20 20 24 22 20 17 12 18 22 20 19 16 10 11 9 11 15 14 18 17 19 19 18 18 17 18
34 35 35 35 34 34 33 31 29 29 27 26 25 28 31 20 19 16 24 19 23 24 21 11 11 15 18 19 18 20 16 15 12 14 16 15 18 22 15 19 19 16 17 19 18
32 32 31 31 32 31 31 31 30 31 29 28 27 28 31 20 24 20 28 24 26 27 23 18 20 18 16 13 18 16 17 16 13 18 19 15 25 16 20 22 21 18 18 20 19
33 32 33 33 32 30 28 28 31 31 30 30 30 30 28 22 20 20 32 27 27 26 25 24 24 19 18 15 16 15 18 19 19 15 17 19 24 25 26 27 23 22 20 21 19
32 33 34 33 32 30 28 27 29 31 30 31 34 30 25 16 13 22 27 31 26 26 26 27 26 24 22 19 20 18 19 20 23 26 21 19 26 28 32 29 25 25 22 21 19
35 35 33 32 33 30 25 25 27 29 32 33 30 28 23 14 18 22 29 34 30 29 27 28 29 33 29 22 19 21 21 25 26 23 25 26 26 29 25 23 26 25 24 20 18
38 37 35 33 32 30 26 26 28 31 35 35 35 38 27 25 17 27 32 35 35 36 28 27 37 32 23 18 19 21 22 26 24 22 21 24 25 23 13 17 22 26 25 22 19
42 40 37 35 34 32 29 28 26 30 35 40 37 37 31 31 29 31 37 36 38 35 32 31 34 30 25 21 21 23 24 23 25 25 27 24 25 22 19 21 23 27 25 26 21
46 45 42 38 37 32 30 27 24 26 24 39 34 34 36 35 40 32 40 40 38 35 30 31 27 30 29 27 23 26 20 20 25 26 25 23 15 22 19 21 20 17 21 25 19
48 48 47 44 41 33 31 26 19 19 6 12 20 21 30 38 39 38 41 42 39 35 35 37 30 26 27 24 24 26 23 24 26 29 23 21 15 12 17 19 17 26 28 21 17
49 48 51 47 43 35 30 23 21 14 12 12 12 21 30 34 36 35 40 44 42 36 36 35 29 31 26 22 24 20 21 19 21 17 4 16 18 9 17 18 24 23 18 16 11
49 48 51 50 44 38 30 24 22 19 18 19 21 23 24 33 34 41 43 49 45 39 42 33 35 31 26 25 24 19 18 7 5 1 6 11 8 17 21 19 20 24 23 12 8
46 45 49 49 44 41 34 35 22 37 42 10 27 26 26 29 37 41 42 52 50 43 30 35 25 37 34 33 25 23 17 9 6 3 6 10 7 18 19 18 21 19 17 9 3
39 43 46 48 43 43 39 45 50 45 32 34 17 25 29 25 26 42 51 52 54 53 44 31 34 33 31 32 26 21 22 21 18 18 3 9 19 23 14 19 23 20 8 9 4
25 31 38 41 40 44 46 64 52 43 27 34 27 27 33 34 32 28 45 54 55 51 47 35 15 29 31 29 28 27 24 15 9 2 4 5 7 18 25 21 19 15 12 9 12
26 32 38 36 33 41 57 73 59 32 35 23 46 30 34 38 36 34 29 39 49 53 44 40 33 16 25 37 33 28 26 26 23 12 5 3 10 16 14 19 13 14 8 9 9
31 35 40 32 40 43 65 69 46 46 22 33 34 43 32 36 35 36 35 27 27 40 50 41 32 26 30 23 25 25 31 29 25 10 9 13 25 11 11 15 14 12 5 10 12
34 34 37 38 44 49 64 59 41 20 51 24 38 45 43 25 26 35 38 31 22 28 46 44 29 26 23 31 34 30 27 28 30 29 23 13 20 13 9 16 16 12 7 12 17
33 33 38 37 45 50 57 58 36 53 28 42 27 36 44 47 30 19 21 25 37 25 30 35 42 40 33 29 25 29 31 29 26 27 24 29 26 19 20 23 14 13 10 11 11
36 22 20 30 45 48 44 37 53 24 52 33 34 26 32 36 40 33 14 20 29 32 26 27 38 42 40 37 35 36 37 35 36 34 28 26 25 25 26 21 15 14 9 13 14
33 29 26 18 32 45 37 38 37 43 33 45 22 35 27 25 28 31 32 23 23 23 27 28 23 18 25 37 36 33 38 41 39 36 35 32 31 26 23 17 15 15 17 15 16
32 32 21 27 21 38 47 43 40 32 42 28 38 29 30 29 26 21 24 35 24 20 21 23 22 22 20 25 30 42 41 38 40 39 37 38 31 25 22 20 15 16 24 21 12
Wind_Direction
262 275 266 268 276 276 270 267 266 266 265 262 262 260 262 260 260 266 275 271 237 222 230 223 225 226 237 231 240 259 270 276 292 319 306 281 259 271 278 274 281 282 306 312 311
263 263 271 275 276 277 275 271 268 266 266 261 257 254 256 259 257 262 274 250 236 224 222 219 220 228 246 238 254 264 267 273 289 299 297 284 274 277 278 293 291 294 316 316 315
261 264 269 273 272 272 272 271 270 268 266 267 261 255 253 256 260 264 256 240 233 225 217 206 212 228 242 249 248 254 265 289 292 291 289 265 275 276 289 280 304 310 319 319 321
263 264 266 268 270 271 274 274 271 269 268 266 261 258 258 254 258 267 255 234 232 220 216 208 219 232 245 248 240 260 286 296 295 288 275 266 283 293 287 303 290 309 312 313 326
260 262 265 267 270 271 270 269 269 270 269 265 261 258 255 252 248 254 249 222 224 219 207 211 225 236 245 239 239 270 297 298 305 302 265 269 299 286 285 288 293 307 318 315 325
263 262 262 264 267 268 269 269 268 270 271 268 261 257 253 254 261 227 228 219 217 212 210 215 226 248 264 240 255 282 294 285 285 280 283 297 292 280 315 303 303 305 310 314 325
263 263 262 263 262 263 264 264 264 265 265 265 263 260 255 253 251 228 218 213 211 200 204 210 226 245 250 257 267 284 276 270 263 288 291 291 284 293 311 309 312 312 306 306 312
264 263 264 263 262 262 262 261 259 257 258 262 264 263 263 255 244 228 214 205 204 202 202 210 244 255 239 248 263 274 258 255 279 297 286 274 303 309 301 303 313 302 304 298 304
259 261 261 260 261 262 263 261 260 258 254 255 257 261 267 258 253 220 208 202 200 205 209 217 234 237 247 238 249 259 261 271 280 293 296 281 305 308 311 306 302 299 297 294 303
259 257 257 258 260 259 258 258 258 256 254 254 253 255 255 254 238 209 209 195 200 200 206 220 230 229 230 241 243 251 280 288 291 294 298 297 300 308 308 301 291 294 293 292 304
261 258 256 256 258 260 260 261 259 259 252 248 247 245 238 247 231 208 203 205 206 203 210 216 223 223 225 240 259 266 279 289 295 300 296 292 297 301 299 280 279 291 297 298 302
255 256 258 256 256 258 256 256 259 262 261 256 251 250 235 228 224 204 200 206 205 208 210 217 224 223 236 247 258 272 286 288 295 300 299 299 288 307 263 273 279 286 292 295 290
256 253 251 251 252 250 250 252 256 263 268 259 256 254 242 228 225 202 200 203 210 212 214 221 232 225 236 247 257 272 283 285 293 306 299 297 293 301 290 277 282 284 288 283 283
251 250 250 247 246 244 242 246 251 260 275 264 261 253 243 226 227 203 200 202 209 217 221 228 230 228 237 249 254 270 281 275 289 304 303 297 288 294 289 270 283 290 303 293 277
251 248 244 238 240 236 237 237 233 248 285 257 245 236 236 227 228 207 203 202 211 211 211 221 226 226 235 240 253 265 286 292 295 300 298 287 270 284 287 273 277 297 303 299 270
249 246 245 240 235 231 229 224 206 202 243 218 215 216 221 218 219 216 208 208 216 219 225 233 240 239 243 250 257 274 280 288 302 292 263 288 257 261 285 290 306 312 301 303 242
249 246 243 238 233 224 219 199 184 217 229 232 208 210 221 220 209 211 208 208 208 208 222 230 234 239 243 247 249 255 270 303 308 291 231 270 241 273 291 310 315 315 306 290 224
248 245 242 236 227 220 210 189 215 229 216 196 199 212 219 217 218 208 209 210 214 214 216 218 223 232 238 241 249 255 260 225 230 228 264 289 249 300 302 307 313 319 298 186 190
232 238 239 234 222 215 203 192 220 224 227 211 199 207 212 219 218 211 211 212 214 214 216 216 227 234 237 242 241 243 250 274 258 262 286 264 276 295 307 314 326 319 293 200 209
238 231 229 228 217 210 201 213 220 221 224 214 212 208 213 215 205 207 210 219 214 217 219 220 231 238 239 231 238 248 257 249 255 196 231 259 266 279 306 318 337 306 312 228 215
239 236 228 224 214 212 207 217 219 214 217 216 213 219 218 217 216 209 213 213 219 215 220 221 224 229 234 230 233 234 228 239 257 244 186 237 263 289 305 320 344 335 320 234 222
226 236 230 225 212 219 212 213 207 223 208 213 221 216 223 223 223 222 221 221 213 218 215 216 224 225 231 232 239 247 246 246 234 232 225 249 267 279 291 312 316 264 290 217 200
232 234 236 223 213 220 214 223 215 201 205 210 215 219 219 211 215 225 228 222 212 213 211 209 214 212 224 232 236 236 244 244 245 247 231 225 259 271 291 318 306 305 211 209 208
222 229 233 224 219 226 226 222 223 209 208 221 215 214 224 223 217 207 195 212 210 221 215 212 221 223 224 231 230 240 241 245 246 236 237 242 254 247 277 307 300 296 226 202 210
223 235 205 212 218 226 230 230 226 217 218 214 224 217 210 220 221 219 189 190 194 202 192 204 221 230 240 246 245 240 242 245 245 249 241 248 254 263 278 294 265 258 270 227 210
224 237 234 222 212 218 219 231 220 225 213 217 213 217 203 204 208 211 208 199 194 196 193 204 224 220 238 236 237 241 242 243 246 241 240 243 255 269 275 288 247 247 268 247 244
225 233 251 255 246 221 230 232 234 222 218 214 225 216 209 218 212 185 192 202 199 197 189 203 220 221 234 232 229 240 234 240 245 241 241 244 256 268 273 264 255 251 241 251 227